Location: Cuiry
(49.3858°N, 3.7708°E)
Time: 01:54:31
(UTC+00:00)

UNK - Pass Details

Date: 13 April 2026
Orbit: 653 x 673 km, 98.4° (Epoch: 19 May)

Event Time Altitude Azimuth Distance (km) Brightness Sun altitude
Rises 03:44:42 0° 150° (SSE) 3,012 7.1 -11.8°
Reaches altitude 10° 03:46:58 10° 145° (SE) 2,102 6.4 -11.5°
Maximum altitude 03:51:25 52° 70° (ENE) 835 4.7 -10.8°
Drops below altitude 10° 03:55:54 10° 354° (N) 2,111 6.6 -10.2°
Sets 03:58:10 0° 350° (N) 3,027 7.3 -9.9°
